This is the latest recevied weather packets stored in our database for station/object N6WDO. If no packets are shown the sender has not sent any weather packets the latest 10 day(s).
| Time | Temp. | Humidity | Pressure | Rain* | Wind** | Luminosity | Snow |
|---|---|---|---|---|---|---|---|
| 1777753574 | 27.22° C | 39% | 1014.7 hPa | 0 mm | - | 658 W/m² | - |
| 1777753272 | 27.22° C | 40% | 1014.7 hPa | 0 mm | - | 722 W/m² | - |
| 1777752968 | 26.67° C | 41% | 1014.8 hPa | 0 mm | - | 739 W/m² | - |
| 1777752665 | 27.22° C | 38% | 1014.5 hPa | 0 mm | - | 747 W/m² | - |
| 1777752360 | 27.78° C | 37% | 1014.8 hPa | 0 mm | - | 746 W/m² | - |
| 1777752058 | 27.22° C | 37% | 1014.7 hPa | 0 mm | - | 724 W/m² | - |
| 1777751755 | 27.78° C | 36% | 1014.7 hPa | 0 mm | - | 632 W/m² | - |
| 1777751451 | 26.67° C | 37% | 1014.9 hPa | 0 mm | - | 731 W/m² | - |
| 1777751149 | 26.11° C | 40% | 1015 hPa | 0 mm | - | 710 W/m² | - |
| 1777750845 | 26.67° C | 38% | 1015 hPa | 0 mm | - | 743 W/m² | - |
| 1777750542 | 26.11° C | 38% | 1014.9 hPa | 0 mm | - | 670 W/m² | - |
| 1777750239 | 26.67° C | 39% | 1014.9 hPa | 0 mm | - | 741 W/m² | - |
| 1777749934 | 26.11° C | 39% | 1015 hPa | 0 mm | - | 732 W/m² | - |
| 1777749632 | 26.11° C | 41% | 1015 hPa | 0 mm | - | 693 W/m² | - |
| 1777749328 | 26.11° C | 42% | 1015.1 hPa | 0 mm | - | 716 W/m² | - |
| 1777749026 | 26.11° C | 43% | 1015.2 hPa | 0 mm | - | 724 W/m² | - |
| 1777748724 | 26.11° C | 40% | 1015 hPa | 0 mm | - | 734 W/m² | - |
| 1777748421 | 25.56° C | 39% | 1015.1 hPa | 0 mm | - | 729 W/m² | - |
| 1777748115 | 26.67° C | 44% | 1015 hPa | 0 mm | - | 723 W/m² | - |
| 1777747813 | 26.11° C | 43% | 1015.2 hPa | 0 mm | - | 711 W/m² | - |
| 1777747508 | 25.56° C | 45% | 1015.1 hPa | 0 mm | - | 716 W/m² | - |
| 1777747205 | 25° C | 45% | 1015.3 hPa | 0 mm | - | 669 W/m² | - |
| 1777746901 | 26.67° C | 41% | 1015.4 hPa | 0 mm | - | 555 W/m² | - |
| 1777746596 | 26.11° C | 45% | 1015.5 hPa | 0 mm | - | 688 W/m² | - |
| 1777746292 | 25.56° C | 44% | 1015.7 hPa | 0 mm | - | 628 W/m² | - |
* Rain latest hour (hover to see other rain measurements)
** Current wind speed in m/s (hover to see current wind gust speed)